| time (UTC) | temp F | wind direction | speed MPH | gust MPH | rain 1hr in | rain 24hr in | rain mn in | humidity % | barometer mb |
| 20260507165310 | 71 | 0 | 5.0 | 0.0 | 0.00 | 0.00 | 0.00 | 53 | 1012.0 |
| 20260507164210 | 71 | 0 | 5.0 | 0.0 | 0.00 | 0.00 | 0.00 | 53 | 1013.0 |
| 20260507163109 | 70 | 0 | 5.0 | 0.0 | 0.00 | 0.00 | 0.00 | 55 | 1013.0 |
| 20260507162008 | 70 | 0 | 5.0 | 0.0 | 0.00 | 0.00 | 0.00 | 56 | 1014.0 |
| 20260507160908 | 70 | 0 | 5.0 | 0.0 | 0.00 | 0.00 | 0.00 | 59 | 1014.0 |
| 20260507155807 | 70 | 0 | 5.0 | 0.0 | 0.00 | 0.00 | 0.00 | 63 | 1014.0 |
| 20260507154706 | 70 | 0 | 5.0 | 0.0 | 0.00 | 0.00 | 0.00 | 63 | 1014.0 |
| 20260507153604 | 69 | 0 | 5.0 | 0.0 | 0.00 | 0.00 | 0.00 | 66 | 1014.0 |
| 20260507152501 | 69 | 0 | 5.0 | 0.0 | 0.00 | 0.00 | 0.00 | 67 | 1015.0 |
| 20260507151400 | 69 | 0 | 5.0 | 0.0 | 0.00 | 0.00 | 0.00 | 69 | 1015.0 |
| 20260507150259 | 69 | 92 | 3.0 | 5.0 | 0.00 | 0.00 | 0.00 | 72 | 1015.0 |
| 20260507145158 | 69 | 92 | 3.0 | 5.0 | 0.00 | 0.00 | 0.00 | 72 | 1015.0 |
| 20260507144057 | 63 | 140 | 3.0 | 0.0 | 0.00 | 0.00 | 0.00 | 83 | 1015.0 |
| 20260507142956 | 63 | 140 | 3.0 | 0.0 | 0.00 | 0.00 | 0.00 | 83 | 1016.0 |
| 20260507141856 | 63 | 140 | 3.0 | 0.0 | 0.00 | 0.00 | 0.00 | 85 | 1016.0 |
| 20260507140755 | 63 | 140 | 3.0 | 0.0 | 0.00 | 0.00 | 0.00 | 87 | 1016.0 |
| 20260507135655 | 64 | 79 | 3.0 | 4.0 | 0.00 | 0.00 | 0.00 | 79 | 1016.0 |
| 20260507134554 | 64 | 79 | 3.0 | 4.0 | 0.00 | 0.00 | 0.00 | 80 | 1016.0 |
| 20260507133453 | 57 | 0 | 1.0 | 0.0 | 0.00 | 0.00 | 0.00 | 10 | 1016.0 |
| 20260507132351 | 57 | 0 | 1.0 | 0.0 | 0.00 | 0.00 | 0.00 | 10 | 1016.0 |
| 20260507131248 | 57 | 0 | 1.0 | 0.0 | 0.00 | 0.00 | 0.00 | 10 | 1016.0 |
| 20260507130148 | 55 | 200 | 3.0 | 0.0 | 0.00 | 0.00 | 0.00 | 10 | 1016.0 |
| 20260507125048 | 55 | 200 | 3.0 | 0.0 | 0.00 | 0.00 | 0.00 | 10 | 1016.0 |
| 20260507123947 | 56 | 200 | 3.0 | 0.0 | 0.00 | 0.00 | 0.00 | 99 | 1016.0 |
| 20260507122846 | 56 | 200 | 3.0 | 0.0 | 0.00 | 0.00 | 0.00 | 99 | 1016.0 |
| 20260507121745 | 56 | 200 | 3.0 | 0.0 | 0.00 | 0.00 | 0.00 | 99 | 1016.0 |
| 20260507120644 | 56 | 200 | 3.0 | 0.0 | 0.00 | 0.00 | 0.00 | 99 | 1016.0 |
| 20260507115542 | 56 | 350 | 3.0 | 0.0 | 0.00 | 0.00 | 0.00 | 99 | 1016.0 |
| 20260507114440 | 56 | 350 | 3.0 | 0.0 | 0.00 | 0.00 | 0.00 | 99 | 1016.0 |
| 20260507113339 | 56 | 350 | 3.0 | 0.0 | 0.00 | 0.00 | 0.00 | 99 | 1016.0 |
| 20260507112239 | 56 | 350 | 3.0 | 0.0 | 0.00 | 0.00 | 0.00 | 99 | 1016.0 |
| 20260507111138 | 56 | 350 | 3.0 | 0.0 | 0.00 | 0.00 | 0.00 | 99 | 1016.0 |
| 20260507110038 | 56 | 350 | 3.0 | 0.0 | 0.00 | 0.00 | 0.00 | 99 | 1016.0 |
| 20260507104937 | 56 | 350 | 3.0 | 0.0 | 0.00 | 0.00 | 0.00 | 99 | 1016.0 |
| 20260507103837 | 56 | 350 | 3.0 | 0.0 | 0.00 | 0.00 | 0.00 | 99 | 1016.0 |
| 20260507102736 | 56 | 350 | 3.0 | 0.0 | 0.00 | 0.00 | 0.00 | 99 | 1016.0 |
| 20260507101636 | 56 | 350 | 3.0 | 0.0 | 0.00 | 0.00 | 0.00 | 99 | 1016.0 |
| 20260507100534 | 56 | 350 | 3.0 | 0.0 | 0.00 | 0.00 | 0.00 | 99 | 1016.0 |
| 20260507095434 | 56 | 350 | 3.0 | 0.0 | 0.00 | 0.00 | 0.00 | 99 | 1016.0 |
| 20260507094334 | 56 | 350 | 3.0 | 0.0 | 0.00 | 0.00 | 0.00 | 99 | 1016.0 |
| 20260507093233 | 56 | 350 | 3.0 | 0.0 | 0.00 | 0.00 | 0.00 | 99 | 1016.0 |
| 20260507092133 | 56 | 350 | 3.0 | 0.0 | 0.00 | 0.00 | 0.00 | 99 | 1016.0 |
| 20260507091031 | 56 | 350 | 3.0 | 0.0 | 0.00 | 0.00 | 0.00 | 99 | 1016.0 |
| 20260507085931 | 57 | 350 | 3.0 | 0.0 | 0.00 | 0.00 | 0.00 | 99 | 1016.0 |
| 20260507084830 | 57 | 350 | 3.0 | 0.0 | 0.00 | 0.00 | 0.00 | 99 | 1016.0 |
| 20260507083729 | 57 | 350 | 3.0 | 0.0 | 0.00 | 0.00 | 0.00 | 99 | 1016.0 |
| 20260507082628 | 57 | 350 | 3.0 | 0.0 | 0.00 | 0.00 | 0.00 | 99 | 1016.0 |
| 20260507081527 | 58 | 350 | 3.0 | 0.0 | 0.00 | 0.00 | 0.00 | 99 | 1016.0 |
| 20260507080427 | 59 | 350 | 3.0 | 0.0 | 0.00 | 0.00 | 0.00 | 99 | 1016.0 |
| 20260507075326 | 59 | 350 | 3.0 | 0.0 | 0.00 | 0.00 | 0.00 | 99 | 1016.0 |
| 20260507074226 | 59 | 350 | 3.0 | 0.0 | 0.00 | 0.00 | 0.00 | 99 | 1016.0 |
| 20260507073125 | 59 | 350 | 3.0 | 0.0 | 0.00 | 0.00 | 0.00 | 99 | 1016.0 |
| 20260507072023 | 59 | 350 | 3.0 | 0.0 | 0.00 | 0.00 | 0.00 | 99 | 1016.0 |
| 20260507070920 | 59 | 350 | 3.0 | 0.0 | 0.00 | 0.00 | 0.00 | 99 | 1016.0 |
| 20260507065820 | 61 | 350 | 2.0 | 0.0 | 0.00 | 0.00 | 0.00 | 93 | 1016.0 |
| 20260507064718 | 61 | 350 | 2.0 | 0.0 | 0.00 | 0.00 | 0.00 | 93 | 1016.0 |
| 20260507063618 | 61 | 350 | 3.0 | 0.0 | 0.00 | 0.00 | 0.00 | 93 | 1017.0 |
| 20260507062517 | 61 | 350 | 3.0 | 0.0 | 0.00 | 0.00 | 0.00 | 93 | 1017.0 |
| 20260507061416 | 61 | 350 | 3.0 | 0.0 | 0.00 | 0.00 | 0.00 | 93 | 1017.0 |
| 20260507060315 | 61 | 350 | 3.0 | 0.0 | 0.00 | 0.00 | 0.00 | 93 | 1017.0 |
| 20260507055213 | 61 | 350 | 3.0 | 0.0 | 0.00 | 0.00 | 0.00 | 93 | 1017.0 |
| 20260507054113 | 61 | 350 | 3.0 | 0.0 | 0.00 | 0.00 | 0.00 | 93 | 1017.0 |
| 20260507053010 | 61 | 350 | 3.0 | 0.0 | 0.00 | 0.00 | 0.00 | 93 | 1017.0 |
| 20260507051909 | 61 | 350 | 3.0 | 0.0 | 0.00 | 0.00 | 0.00 | 93 | 1018.0 |
| 20260507050808 | 61 | 350 | 3.0 | 0.0 | 0.00 | 0.00 | 0.00 | 92 | 1018.0 |
| 20260507045707 | 61 | 350 | 3.0 | 0.0 | 0.00 | 0.00 | 0.00 | 92 | 1018.0 |
| 20260507044607 | 61 | 350 | 3.0 | 0.0 | 0.00 | 0.00 | 0.00 | 92 | 1018.0 |
| 20260507043506 | 61 | 350 | 3.0 | 0.0 | 0.00 | 0.00 | 0.00 | 91 | 1018.0 |
| 20260507042405 | 61 | 350 | 3.0 | 0.0 | 0.00 | 0.00 | 0.00 | 89 | 1018.0 |
| 20260507041303 | 61 | 350 | 3.0 | 0.0 | 0.00 | 0.00 | 0.00 | 87 | 1018.0 |
| 20260507040202 | 61 | 350 | 3.0 | 0.0 | 0.00 | 0.00 | 0.00 | 83 | 1018.0 |
| 20260507035102 | 61 | 350 | 3.0 | 0.0 | 0.00 | 0.00 | 0.00 | 83 | 1018.0 |
| 20260507033956 | 61 | 350 | 3.0 | 0.0 | 0.00 | 0.00 | 0.00 | 84 | 1018.0 |
| 20260507032855 | 61 | 350 | 3.0 | 0.0 | 0.00 | 0.00 | 0.00 | 85 | 1017.0 |
| 20260507031755 | 61 | 350 | 3.0 | 0.0 | 0.00 | 0.00 | 0.00 | 86 | 1017.0 |
| 20260507030654 | 61 | 350 | 3.0 | 0.0 | 0.00 | 0.00 | 0.00 | 87 | 1017.0 |
| 20260507025554 | 61 | 350 | 3.0 | 0.0 | 0.00 | 0.00 | 0.00 | 87 | 1017.0 |
| 20260507024453 | 61 | 350 | 3.0 | 0.0 | 0.00 | 0.00 | 0.00 | 87 | 1017.0 |
| 20260507023352 | 61 | 350 | 3.0 | 0.0 | 0.00 | 0.00 | 0.00 | 86 | 1017.0 |
| 20260507022249 | 61 | 350 | 3.0 | 0.0 | 0.00 | 0.00 | 0.00 | 85 | 1017.0 |
| 20260507021149 | 61 | 350 | 3.0 | 0.0 | 0.00 | 0.00 | 0.00 | 83 | 1017.0 |
| 20260507020048 | 61 | 350 | 3.0 | 0.0 | 0.00 | 0.00 | 0.00 | 80 | 1017.0 |
| 20260507014948 | 61 | 350 | 3.0 | 0.0 | 0.00 | 0.00 | 0.00 | 80 | 1017.0 |
| 20260507013847 | 61 | 350 | 3.0 | 0.0 | 0.00 | 0.00 | 0.00 | 79 | 1017.0 |
| 20260507012746 | 61 | 350 | 3.0 | 0.0 | 0.00 | 0.00 | 0.00 | 78 | 1016.0 |
| 20260507011644 | 61 | 350 | 3.0 | 0.0 | 0.00 | 0.00 | 0.00 | 78 | 1016.0 |
| 20260507010543 | 61 | 350 | 3.0 | 0.0 | 0.00 | 0.00 | 0.00 | 78 | 1016.0 |
| 20260507005443 | 64 | 0 | 2.0 | 0.0 | 0.00 | 0.00 | 0.00 | 69 | 1016.0 |
| 20260507004341 | 64 | 0 | 2.0 | 0.0 | 0.00 | 0.00 | 0.00 | 69 | 1016.0 |
| 20260507003239 | 64 | 0 | 2.0 | 0.0 | 0.00 | 0.00 | 0.00 | 72 | 1016.0 |
| 20260507002139 | 64 | 0 | 2.0 | 0.0 | 0.00 | 0.00 | 0.00 | 72 | 1015.0 |
| 20260507001037 | 64 | 0 | 2.0 | 0.0 | 0.00 | 0.00 | 0.00 | 72 | 1015.0 |
| 20260506235937 | 68 | 0 | 1.0 | 0.0 | 0.00 | 0.00 | 0.00 | 56 | 1015.0 |
| 20260506234836 | 68 | 0 | 1.0 | 0.0 | 0.00 | 0.00 | 0.00 | 56 | 1015.0 |
| 20260506233736 | 68 | 0 | 1.0 | 0.0 | 0.00 | 0.00 | 0.00 | 56 | 1015.0 |
| 20260506232635 | 68 | 0 | 1.0 | 0.0 | 0.00 | 0.00 | 0.00 | 56 | 1014.0 |
| 20260506231535 | 68 | 0 | 1.0 | 0.0 | 0.00 | 0.00 | 0.00 | 56 | 1014.0 |
| 20260506230433 | 70 | 0 | 3.0 | 0.0 | 0.00 | 0.00 | 0.00 | 49 | 1014.0 |
| 20260506225332 | 70 | 0 | 3.0 | 0.0 | 0.00 | 0.00 | 0.00 | 49 | 1014.0 |
| 20260506224232 | 70 | 0 | 3.0 | 0.0 | 0.00 | 0.00 | 0.00 | 49 | 1013.0 |
| 20260506223131 | 69 | 0 | 3.0 | 0.0 | 0.00 | 0.00 | 0.00 | 48 | 1013.0 |
| 20260506222032 | 69 | 0 | 3.0 | 0.0 | 0.00 | 0.00 | 0.00 | 47 | 1012.0 |
| 20260506220928 | 69 | 81 | 3.0 | 6.0 | 0.00 | 0.00 | 0.00 | 46 | 1012.0 |
| 20260506215827 | 73 | 130 | 5.0 | 0.0 | 0.00 | 0.00 | 0.00 | 43 | 1012.0 |
| 20260506214726 | 73 | 130 | 5.0 | 0.0 | 0.00 | 0.00 | 0.00 | 43 | 1012.0 |
| 20260506213625 | 74 | 0 | 8.0 | 21.0 | 0.00 | 0.00 | 0.00 | 44 | 1011.0 |
| 20260506212525 | 74 | 0 | 8.0 | 21.0 | 0.00 | 0.00 | 0.00 | 44 | 1010.0 |
| 20260506210222 | 74 | 0 | 8.0 | 21.0 | 0.00 | 0.00 | 0.00 | 44 | 1010.0 |
| 20260506205119 | 74 | 0 | 8.0 | 21.0 | 0.00 | 0.00 | 0.00 | 44 | 1010.0 |
| 20260506204018 | 74 | 0 | 8.0 | 21.0 | 0.00 | 0.00 | 0.00 | 45 | 1011.0 |
| 20260506202918 | 74 | 0 | 8.0 | 21.0 | 0.00 | 0.00 | 0.00 | 46 | 1010.0 |
| 20260506201817 | 74 | 0 | 8.0 | 21.0 | 0.00 | 0.00 | 0.00 | 48 | 1010.0 |
| 20260506200714 | 73 | 0 | 8.0 | 21.0 | 0.00 | 0.00 | 0.00 | 50 | 1010.0 |
| 20260506195613 | 72 | 0 | 6.0 | 0.0 | 0.00 | 0.00 | 0.00 | 54 | 1010.0 |
| 20260506194511 | 72 | 0 | 6.0 | 0.0 | 0.00 | 0.00 | 0.00 | 54 | 1010.0 |
| 20260506193410 | 72 | 0 | 6.0 | 0.0 | 0.00 | 0.00 | 0.00 | 54 | 1010.0 |
| 20260506192310 | 72 | 0 | 6.0 | 0.0 | 0.00 | 0.00 | 0.00 | 54 | 1010.0 |
| 20260506191209 | 72 | 0 | 6.0 | 0.0 | 0.00 | 0.00 | 0.00 | 55 | 1010.0 |
| 20260506190108 | 72 | 0 | 5.0 | 0.0 | 0.00 | 0.00 | 0.00 | 57 | 1011.0 |
| 20260506185008 | 72 | 0 | 5.0 | 0.0 | 0.00 | 0.00 | 0.00 | 57 | 1011.0 |
| 20260506183906 | 72 | 0 | 5.0 | 0.0 | 0.00 | 0.00 | 0.00 | 57 | 1011.0 |
| 20260506182805 | 72 | 0 | 5.0 | 0.0 | 0.00 | 0.00 | 0.00 | 58 | 1012.0 |
| 20260506181704 | 71 | 0 | 5.0 | 0.0 | 0.00 | 0.00 | 0.00 | 59 | 1012.0 |
| 20260506180604 | 70 | 0 | 5.0 | 0.0 | 0.00 | 0.00 | 0.00 | 61 | 1012.0 |
| 20260506175503 | 68 | 160 | 5.0 | 0.0 | 0.00 | 0.00 | 0.00 | 65 | 1012.0 |
| 20260506174403 | 68 | 160 | 5.0 | 0.0 | 0.00 | 0.00 | 0.00 | 65 | 1012.0 |
| 20260506173302 | 68 | 160 | 5.0 | 0.0 | 0.00 | 0.00 | 0.00 | 65 | 1012.0 |
| 20260506172200 | 68 | 160 | 5.0 | 0.0 | 0.00 | 0.00 | 0.00 | 66 | 1013.0 |
| 20260506171059 | 68 | 160 | 5.0 | 0.0 | 0.00 | 0.00 | 0.00 | 67 | 1013.0 |